Regional Weather Roundup
Issued by NWS Charleston, SC

Current Version | Previous Version | Graphics & Text | Print | Product List | Glossary On
Versions: 1 2 3 4 5 6 7 8 9 10 11 12 13 14 15 16 17 18 19 20 21 22 23 24 25 26 27 28 29 30 31 32 33 34 35 36 37 38 39 40 41 42 43 44 45 46 47 48 49 50
000
ASUS42 KCHS 270512
RWRCHS

REGIONAL WEATHER ROUNDUP
NATIONAL WEATHER SERVICE CHARLESTON SC
100 AM EDT MON APR 27 2015

NOTE: "FAIR" INDICATES FEW OR NO CLOUDS BELOW 12,000 FEET WITH NO
SIGNIFICANT WEATHER AND/OR OBSTRUCTIONS TO VISIBILITY.

NOT ALL STATIONS ARE QUALITY CONTROLLED BY THE NATIONAL
WEATHER SERVICE. USE DATA WITH CAUTION...ESPECIALLY
DEWPOINT OBSERVATIONS.

SCZ027-030-031-034>040-042>050-270600-
...SOUTHEAST SOUTH CAROLINA...

CITY           SKY/WX    TMP DP  RH WIND       PRES   REMARKS
N CHARLESTON   LGT RAIN  58  54  86 NE13      29.75R
WATERFRONT PRK   N/A     61 N/A N/A N15         N/A
MOUNT PLEASANT LGT RAIN  59  55  88 MISG      29.75S
PINOPOLIS      NOT AVBL
MONCKS CORNER  CLOUDY    55  52  88 NE9       29.77R
SUMMERVILLE    CLOUDY    55  55 100 N9        29.77R
BEAUFORT MCAS  CLOUDY    63  58  83 NE14      29.72S
BEAUFORT ARPT  CLOUDY    64  61  88 N14       29.72R
HILTON HEAD IS CLOUDY    68  63  83 NE9       29.72R
WALTERBORO     CLOUDY    59  54  82 NE12G17   29.76R
ALLENDALE      FAIR      57  55  94 VRB5G12   29.75R

...SOUTHERN MIDLANDS AND PEE DEE...

CITY           SKY/WX    TMP DP  RH WIND       PRES   REMARKS
GEORGETOWN     NOT AVBL
KINGSTREE      NOT AVBL
ORANGEBURG     PTCLDY    55  49  80 NE9       29.78R
BARNWELL       FAIR      57  54  88 NE9       29.77R
AIKEN          FAIR      54  46  76 NE7       29.81R
MANNING        CLOUDY    54  45  71 NE6       29.78R
COLUMBIA       MOCLDY    56  47  71 NE9       29.79S
SUMTER         MOCLDY    53  48  83 N7        29.78R
FLORENCE       CLOUDY    53  48  83 N7        29.79S
MYRTLE BEACH   CLOUDY    54  48  82 N9        29.78S
N MYRTLE BEACH CLOUDY    53  50  89 N5        29.77R

$$

GAZ063-065-086>088-099>101-113>116-118-119-134>141-150-270600-
...SOUTHEAST GEORGIA...

CITY           SKY/WX    TMP DP  RH WIND       PRES   REMARKS
SAVANNAH ARPT  CLOUDY    70  61  73 NE14G23   29.70R
HUNTER AAF     CLOUDY    75  59  56 N12       29.66R
FORT STEWART   CLOUDY    74  59  59 W6        29.65F
STATESBORO       N/A     64  60  87 NE9       29.73R
SYLVANIA       CLOUDY    61  58  90 NE10G20   29.74R
CLAXTON        FAIR      72  61  68 NW3       29.69R

...CSRA...CENTRAL AND FAR SOUTHEAST GEORGIA...

CITY           SKY/WX    TMP DP  RH WIND       PRES   REMARKS
THOMSON          N/A     59  56  88 CALM      29.83R
AUGUSTA-BUSH   LGT RAIN  57  51  80 NE9       29.76S
AUGUSTA-DANIEL PTCLDY    59  49  69 NE13      29.78R
SWAINSBORO     NOT AVBL
VIDALIA        CLOUDY    72  59  64 NW6       29.70R
EASTMAN        FAIR      68  62  79 CALM      29.74R
HAZLEHURST     FAIR      73  64  74 CALM      29.69S
ALMA           CLOUDY    73  64  73 W5        29.70S
WAYCROSS       CLOUDY    76  69  81 W5        29.70S
JESUP          FAIR      73  68  83 W3        29.69S
BAXLEY         FAIR      75  66  73 W3        29.68F
BRUNSWICK      MOCLDY    73  63  68 SW7       29.69S
SAINT SIMONS   MOCLDY    74  64  71 SW7       29.68F

$$

SCZ027-028-034-036>038-045-046-048>050-GAZ119-141-270600-
...LAKE AND SUPPLEMENTAL COASTAL OBSERVATIONS...

STATION/POSITION TIME  TEMP    WIND        PRES    WAVE   SWELL
                       AIR SEA DIR/SP/G            HT/PER HT/PER/DIR
                 (UTC) (F)     (DEG/KT/KT) (MB)    (FT/S) (FT/S/D)
UPR LAKE MARION  NOT AVBL
WINYAH BAY       0345   54      10/  7     1006.0
LAKE MURRAY      0400   55      40/  4/  8 1008.5R
ACE BASIN NERRS  NOT AVBL
FORT PULASKI     0400   78 70  240/  6/ 10 1005.0R
SAPELO ISLAND    0400   74     270/  1     1005.0S

$$

ANZ835-935-AMZ111-154-330-350-352-354-370-450-454-472-270600-
...C-MAN AND BUOY OBSERVATIONS...

STATION/POSITION TIME  TEMP    WIND        PRES    WAVE   SWELL
                       AIR SEA DIR/SP/G            HT/PER HT/PER/DIR
                 (UTC) (F)     (DEG/KT/KT) (MB)    (FT/S) (FT/S/D)
BUOY 41004       0450   65 71   30/ 19/ 23 1005.4R   6/ 6
BUOY 41008       0450   74 71  240/  6/  8 1004.8F   1/ 4   2/170/ 4
FOLLY BEACH CMAN 0400   63      10/ 13/ 15 1006.4R
CAPERS NEARSHORE 0408   62      40/ 17/ 23 1006.8R
FRIPP NEARSHORE  0400   68      50/ 19/ 21 1005.4R


STATION/POSITION TIME  TEMP    WIND        PRES    WAVE   SWELL
                       AIR SEA DIR/SP/G            HT/PER HT/PER/DIR
                 (UTC) (F)     (DEG/KT/KT) (MB)    (FT/S) (FT/S/D)
5E ST. MARYS GA  0421      71                N/A     1/ 5
FRYING PAN BUOY  0450   61 71   40/ 12/ 16 1007.2R   5/ 5   3/200/ 7
BUOY 41025       0350   58 77   10/ 19/ 23 1005.8    7/10   5/ 60/10
CAPE LOOKOUT NC  0400   54     360/  8/  9 1006.9R
BUOY 41002       0450   66 71   30/ 12/ 17 1004.4R   7/ 8   7/210/ 8
BUOY 41010       0420   80 78  240/ 12/ 14 1006.5R
ST AUGUSTINE FL  0500   76 68  270/  6/  7 1006.8F


$$



USA.gov is the U.S. government's official web portal to all federal, state and local government web resources and services.